Meteopurmerend
purmerend
Purmerend - Baaienwijk



My webcam  My webcam


waarschuwing voor Onweer Meer informatie blitzortung!


Regen radar Meer informatie rain snow radar


Bezoek onze andere website:

CandyAppleRed WebdesignWebdesign Purmerend Candy Apple Red

MeteopurmerendBlog

Template documentation
and downloads



Onweer van: 26-07-2021 13:00 tot: 21:00 waarschuwing voor: Onweer niveau: Geel info button
Enkele onweersbuien, lokaal met hagel en veel neerslag in korte tijd.Kans op blikseminslag, hagel en veel neerslag in korte tijd.Verkeer en buitenactiviteiten kunnen hinder ondervinden.Mijd open water en open gebied, schuil niet onder bomen.Volg weerberichten en waarschuwingen.

15 daagse weersverwachting Cluain Meala (IE)

  • Overzicht
  • Per uur
  • 15 dagen
  • Extra
  • Vergelijk
  • Kaarten
  • Dagkaart
  • Meer »
  • Info
  • Statistieken
  • Directe link
    Temp 6h Neerslag Wind  
 05:45     21:31    Daglengte: 15:46 Vandaag
19:00
18°
 
3
 05:46     21:29    Daglengte: 15:43 Morgen
01:00
16°
12.4 mm
3
07:00
14°
5.7 mm
4
13:00
17°
 
5
19:00
18°
7.5 mm
5
 05:48     21:28    Daglengte: 15:40 Woensdag 28 Jul
01:00
13°
 
3
07:00
13°
 
4
13:00
17°
46.3 mm
7
19:00
16°
46.7 mm
8
 05:49     21:26    Daglengte: 15:37 Donderdag 29 Jul
01:00
12°
 
6
07:00
12°
 
4
Locatie info
Region: Munster
Latitude: 52.3550°N
Longitude: -7.7039°E
24 masl
Temp/Neerslag /Baro Onweer/Dauwpunt
    Temp Baro 1h Neerslag Dauwpunt Wind UV Bewolking  
 05:45     21:31    Daglengte: 15:46 Vandaag
15:00
21°
1010.0 hPa   16.9°
3
Windvlaag: -0.6 m/s
84%
16:00
21°
1009.5 hPa
45%
16.9°
4
Windvlaag: 0.1 m/s
85%
17:00
20°
1009.3 hPa
78%
16.7°
3
Windvlaag: -0.3 m/s
86%
18:00
19°
1009.3 hPa
82%
17.1°
4
Windvlaag: -0.7 m/s
86%
19:00
18°
1009.0 hPa
82%
16.6°
3
Windvlaag: -1.5 m/s
86%
20:00
18°
1009.1 hPa
82%
16.0°
2
Windvlaag: -2.1 m/s
80%
21:00
17°
1009.2 hPa 6.2 mm
82%
15.5°
2
Windvlaag: -0.1 m/s
58%
22:00
17°
1009.5 hPa
82%
15.2°
2
Windvlaag: 0.1 m/s
56%
23:00
16°
1009.5 hPa
82%
14.8°
2
Windvlaag: 2.2 m/s
74%
 05:46     21:29    Daglengte: 15:43 Morgen
00:00
16°
1009.5 hPa
82%
14.5°
3
Windvlaag: 0.5 m/s
81%
01:00
16°
1009.6 hPa 6.2 mm
82%
14.6°
3
Windvlaag: -1.2 m/s
79%
02:00
16°
1009.3 hPa 5.7 mm
80%
14.6°
3
Windvlaag: -1.2 m/s
77%
03:00
15°
1009.1 hPa
70%
14.5°
4
Windvlaag: -0.8 m/s
61%
04:00
15°
1008.9 hPa
24%
13.7°
4
Windvlaag: -0.8 m/s
64%
05:00
15°
1008.7 hPa
19%
13.2°
3
Windvlaag: -0.7 m/s
62%
06:00
14°
1008.7 hPa
14%
13.1°
4
Windvlaag: -1.2 m/s
71%
07:00
14°
1009.1 hPa
14%
12.6°
4
Windvlaag: -0.6 m/s
74%
08:00
14°
1009.1 hPa
14%
12.4°
4
Windvlaag: -0.5 m/s
72%
09:00
15°
1009.2 hPa
14%
12.3°
5
Windvlaag: -1.2 m/s
69%
10:00
16°
1009.1 hPa
14%
12.2°
5
Windvlaag: -2.2 m/s
64%
11:00
16°
1008.9 hPa
14%
12.2°
5
Windvlaag: -3 m/s
57%
12:00
17°
1008.9 hPa
16%
12.6°
5
Windvlaag: -3.5 m/s
63%
13:00
17°
1009.0 hPa
78%
13.1°
5
Windvlaag: -3.4 m/s
58%
14:00
17°
1008.9 hPa 7.5 mm
78%
12.9°
5
Windvlaag: -3.4 m/s
58%
15:00
17°
1008.9 hPa
73%
12.2°
5
Windvlaag: -2.8 m/s
72%
16:00
18°
1008.8 hPa
59%
11.4°
5
Windvlaag: -1.6 m/s
60%
17:00
18°
1008.8 hPa
21%
11.2°
5
Windvlaag: -2.7 m/s
21%
18:00
18°
1008.7 hPa
14%
11.1°
6
Windvlaag: -2.8 m/s
17%
19:00
18°
1008.6 hPa
22%
10.5°
5
Windvlaag: -1.8 m/s
19%
20:00
17°
1008.9 hPa
15%
9.8°
6
Windvlaag: -1.7 m/s
19%
21:00
16°
1009.2 hPa
15%
9.4°
4
Windvlaag: -1.7 m/s
10%
22:00
15°
1009.6 hPa
17%
9.2°
4
Windvlaag: 0.9 m/s
8%
23:00
14°
1009.6 hPa
14%
9.3°
4
Windvlaag: 1.2 m/s
26%
 05:48     21:28    Daglengte: 15:40 Woensdag 28 Jul
00:00
14°
1009.4 hPa
14%
9.2°
4
Windvlaag: 1.7 m/s
51%
01:00
13°
1009.0 hPa
14%
9.5°
3
Windvlaag: 2.2 m/s
34%
02:00
13°
1008.5 hPa
14%
10.2°
3
Windvlaag: 4.2 m/s
37%
03:00
13°
1008.0 hPa
15%
10.4°
3
Windvlaag: 4.7 m/s
34%
04:00
13°
1007.6 hPa
15%
10.3°
3
Windvlaag: 5 m/s
12%
05:00
13°
1007.4 hPa
14%
10.5°
4
Windvlaag: 4.5 m/s
25%
06:00
13°
1007.2 hPa
14%
10.5°
3
Windvlaag: 5.1 m/s
44%
07:00
13°
1007.1 hPa
16%
10.9°
4
Windvlaag: 4.8 m/s
26%
08:00
14°
1006.9 hPa
18%
11.5°
4
Windvlaag: 5.4 m/s
16%
09:00
14°
1007.1 hPa
14%
11.3°
5
Windvlaag: 5.1 m/s
14%
10:00
15°
1005.4 hPa 11.3 mm
24%
10.0°
6
Windvlaag: 4.1 m/s
47%
11:00
16°
1005.2 hPa 11.6 mm
80%
9.7°
7
Windvlaag: 2 m/s
54%
12:00
16°
1005.3 hPa 11.7 mm
90%
7.9°
7
Windvlaag: 1.3 m/s
34%
13:00
17°
1005.2 hPa 11.7 mm
84%
9.0°
7
Windvlaag: 1.6 m/s
67%
14:00
16°
1005.3 hPa 12.0 mm
32%
9.0°
7
Windvlaag: 1.9 m/s
50%
15:00
17°
1005.4 hPa 11.9 mm
36%
9.4°
7
Windvlaag: 0.7 m/s
53%
16:00
16°
1005.4 hPa 11.4 mm
41%
10.1°
8
Windvlaag: 1.1 m/s
25%
17:00
16°
1005.5 hPa 11.4 mm
83%
9.1°
8
Windvlaag: 0.6 m/s
33%
18:00
16°
1005.6 hPa
76%
11.3°
8
Windvlaag: 0.8 m/s
33%
19:00
16°
1005.8 hPa
21%
9.8°
8
Windvlaag: 0.5 m/s
16%
20:00
15°
1006.1 hPa
21%
12.0°
7
Windvlaag: 0.5 m/s
16%
21:00
14°
1006.7 hPa
21%
11.7°
7
Windvlaag: -0.3 m/s
13%
22:00
13°
1007.4 hPa
21%
11.8°
6
Windvlaag: -0.8 m/s
23%
23:00
13°
1007.9 hPa
21%
11.7°
6
Windvlaag: -0.1 m/s
12%
 05:49     21:26    Daglengte: 15:37 Donderdag 29 Jul
00:00
13°
1008.3 hPa
21%
11.6°
6
Windvlaag: 0.6 m/s
12%
01:00
12°
1008.6 hPa
21%
11.2°
6
Windvlaag: 0.6 m/s
11%
02:00
11°
1008.6 hPa
21%
10.4°
5
Windvlaag: 0.9 m/s
9%
03:00
11°
1008.7 hPa
21%
10.1°
5
Windvlaag: 1.6 m/s
19%
04:00
11°
1008.7 hPa
21%
10.0°
5
Windvlaag: 1.8 m/s
23%
05:00
11°
1008.6 hPa
21%
9.9°
4
Windvlaag: 1.8 m/s
14%
06:00
11°
1008.7 hPa
21%
10.1°
4
Windvlaag: 3.2 m/s
11%
07:00
12°
1009.1 hPa
21%
10.1°
4
Windvlaag: 2.8 m/s
31%
08:00
13°
1009.0 hPa
21%
10.3°
4
Windvlaag: 13 m/s
9%
09:00
14°
1009.1 hPa
21%
10.6°
4
Windvlaag: 11.2 m/s
37%
10:00
16°
1008.9 hPa
21%
11.4°
5
Windvlaag: 10.6 m/s
20%
11:00
17°
1008.9 hPa
21%
11.8°
5
Windvlaag: 10 m/s
20%
12:00
18°
1008.8 hPa
21%
11.7°
4
Windvlaag: 8.6 m/s
20%
13:00
19°
1008.5 hPa
21%
11.7°
5
Windvlaag: 8.1 m/s
36%
Temp/Neerslag /Baro Onweer/Dauwpunt
    Temp Baro Neerslag Dauwpunt Wind Bewolking  
 05:45     21:31    Daglengte: 15:46 Vandaag
16:00
21°
1009.5 hPa   16.9°
4
85%
19:00
18°
1009.0 hPa   16.6°
3
86%
22:00
17°
1009.5 hPa 6.2 mm 15.2°
2
56%
 05:46     21:29    Daglengte: 15:43 Morgen
01:00
16°
1009.6 hPa 6.2 mm 14.6°
3
79%
04:00
15°
1008.9 hPa 5.7 mm 13.7°
4
64%
07:00
14°
1009.1 hPa   12.6°
4
74%
10:00
16°
1009.1 hPa   12.2°
5
64%
13:00
17°
1009.0 hPa   13.1°
5
58%
16:00
18°
1008.8 hPa 7.5 mm 11.4°
5
60%
19:00
18°
1008.6 hPa   10.5°
5
19%
22:00
15°
1009.6 hPa   9.2°
4
8%
 05:48     21:28    Daglengte: 15:40 Woensdag 28 Jul
01:00
13°
1009.0 hPa   9.5°
3
34%
04:00
13°
1007.6 hPa   10.3°
3
12%
07:00
13°
1007.1 hPa   10.9°
4
26%
10:00
15°
1005.4 hPa 11.3 mm 10.0°
6
47%
13:00
17°
1005.2 hPa 35.0 mm 9.0°
7
67%
16:00
16°
1005.4 hPa 35.3 mm 10.1°
8
25%
19:00
16°
1005.8 hPa 11.4 mm 9.8°
8
16%
22:00
13°
1007.4 hPa   11.8°
6
23%
 05:49     21:26    Daglengte: 15:37 Donderdag 29 Jul
01:00
12°
1008.6 hPa   11.2°
6
11%
04:00
11°
1008.7 hPa   10.0°
5
23%
07:00
12°
1009.1 hPa   10.1°
4
31%
10:00
16°
1008.9 hPa   11.4°
5
20%
13:00
19°
1008.5 hPa   11.7°
5
36%
16:00
19°
1009.9 hPa 18.5 mm 9.3°
5
1%
19:00
18°
1009.5 hPa 18.5 mm 11.3°
2
1%
22:00
12°
1009.7 hPa 18.5 mm 9.5°
2
1%
 05:51     21:25    Daglengte: 15:34 Vrijdag 30 Jul
01:00
12°
1009.6 hPa 19.0 mm 10.5°
1
1%
04:00
11°
1008.2 hPa 20.7 mm 10.7°
1
1%
07:00
12°
1007.7 hPa 21.6 mm 10.9°
1
1%
10:00
14°
1007.3 hPa 22.4 mm 11.4°
3
1%
13:00
15°
1006.8 hPa 23.2 mm 12.5°
3
1%
16:00
14°
1007.4 hPa 24.5 mm 13.0°
3
1%
19:00
15°
1007.5 hPa 25.4 mm 13.5°
3
1%
22:00
14°
1008.9 hPa 25.9 mm 13.2°
3
1%
 05:52     21:23    Daglengte: 15:31 Zaterdag 31 Jul
01:00
12°
1009.9 hPa 25.9 mm 12.0°
3
1%
04:00
11°
1010.2 hPa 25.9 mm 10.5°
3
0%
07:00
12°
1010.7 hPa 25.9 mm 11.7°
3
0%
10:00
15°
1011.3 hPa 26.0 mm 12.6°
6
1%
13:00
19°
1011.6 hPa 26.0 mm 10.9°
6
1%
16:00
19°
1012.0 hPa 26.0 mm 10.7°
7
0%
19:00
17°
1012.4 hPa 26.1 mm 11.9°
5
0%
22:00
12°
1013.6 hPa 26.2 mm 11.2°
3
0%
 05:54     21:21    Daglengte: 15:27 Zondag 01 Aug
01:00
10°
1014.1 hPa 26.2 mm 9.4°
3
0%
04:00
Voelt als: 7.4°
1014.3 hPa 26.2 mm 8.0°
2
0%
07:00
Voelt als: 7.4°
1015.0 hPa 26.2 mm 8.1°
3
0%
10:00
15°
1015.1 hPa 26.2 mm 9.0°
5
0%
13:00
18°
1015.3 hPa 26.2 mm 8.9°
5
0%
16:00
20°
1015.3 hPa 26.2 mm 9.9°
5
0%
19:00
18°
1015.7 hPa 26.3 mm 13.2°
5
0%
22:00
13°
1016.9 hPa 26.3 mm 11.4°
2
0%
 05:56     21:19    Daglengte: 15:23 Maandag 02 Aug
01:00
11°
1017.3 hPa 26.3 mm 10.2°
2
0%
04:00
10°
1017.2 hPa 26.3 mm 9.3°
1
0%
07:00
11°
1017.3 hPa 26.3 mm 10.2°
1
0%
10:00
17°
1017.2 hPa 26.3 mm 12.4°
1
1%
13:00
20°
1016.2 hPa 52.7 mm 12.4°
2
1%
19:00
18°
1014.0 hPa 53.5 mm 14.4°
5
1%
 05:57     21:18    Daglengte: 15:21 Dinsdag 03 Aug
01:00
16°
1011.9 hPa 54.1 mm 14.8°
3
1%
07:00
15°
1010.5 hPa 54.2 mm 13.9°
3
1%
13:00
20°
1008.5 hPa 54.7 mm 14.3°
7
1%
19:00
18°
1006.9 hPa 56.7 mm 12.9°
6
1%
 05:59     21:16    Daglengte: 15:17 Woensdag 04 Aug
01:00
13°
1007.8 hPa 57.2 mm 11.0°
4
1%
07:00
11°
1008.2 hPa 57.7 mm 10.5°
3
0%
13:00
18°
1008.1 hPa 58.3 mm 12.8°
6
1%
19:00
18°
1007.7 hPa 59.7 mm 12.5°
5
1%
 06:00     21:14    Daglengte: 15:14 Donderdag 05 Aug
01:00
13°
1007.3 hPa 60.0 mm 11.1°
2
1%
07:00
13°
1004.6 hPa 60.1 mm 11.5°
1
1%
13:00
18°
1008.3 hPa 0.8 mm 12.8°
3
62%
19:00
17°
1008.3 hPa 1.4 mm 12.6°
4
64%
 06:02     21:12    Daglengte: 15:10 Vrijdag 06 Aug
01:00
12°
1009.2 hPa 0.5 mm 10.3°
2
55%
07:00
12°
1008.8 hPa 0.3 mm 10.4°
2
59%
13:00
18°
1009.8 hPa 0.6 mm 12.3°
4
55%
19:00
17°
1010.3 hPa 1.6 mm 12.6°
4
59%
 06:04     21:10    Daglengte: 15:06 Zaterdag 07 Aug
01:00
12°
1012.0 hPa 0.3 mm 10.3°
3
38%
07:00
11°
1011.9 hPa 0.1 mm 9.8°
2
47%
13:00
18°
1012.1 hPa 0.4 mm 12.1°
3
64%
19:00
17°
1011.3 hPa 1.4 mm 12.7°
4
72%
 06:05     21:08    Daglengte: 15:03 Zondag 08 Aug
01:00
12°
1011.9 hPa 0.4 mm 10.9°
2
65%
07:00
12°
1011.1 hPa 0.5 mm 10.3°
2
66%
13:00
17°
1011.6 hPa 0.7 mm 12.0°
3
62%
19:00
17°
1011.9 hPa 1.4 mm 12.4°
4
65%
 06:07     21:07    Daglengte: 15:00 Maandag 09 Aug
01:00
12°
1013.7 hPa 0.3 mm 10.0°
3
54%
07:00
11°
1014.0 hPa 0.1 mm 9.7°
2
58%
13:00
18°
1014.9 hPa 0.2 mm 11.9°
3
59%
19:00
17°
1014.4 hPa 1.8 mm 13.0°
3
72%
 06:08     21:05    Daglengte: 14:57 Dinsdag 10 Aug
01:00
13°
1015.2 hPa 0.7 mm 11.1°
2
64%
07:00
12°
1014.9 hPa 0.4 mm 10.8°
2
60%
13:00
18°
1015.0 hPa 0.5 mm 12.6°
2
67%
  CAPE Lifted Index Hail Supercell Tornado SRH 3km CL BTM PRES CL TOP PRES Swiss DWD icon SMHI TS
 05:45     21:31    Daglengte: 15:46 Vandaag
15:00 259 J/kg -0.8 K 0 % 0 % 0 % 0 m²/s² 0 0 -0.2 3
16:00 451 J/kg -1.7 K 0 % 0 % 0 % 0 m²/s² 0 0 -1.22 3
17:00 669 J/kg -2.5 K 0 % 0 % 0 % 0 m²/s² 0 0 -2.02 80
18:00 389 J/kg -1.6 K 0 % 0 % 0 % 0 m²/s² 0 0 -1.57 61
19:00 92 J/kg -0.3 K 0 % 0 % 0 % 0 m²/s² 0 0 -0.03 61
20:00 38 J/kg -0.8 K 0 % 0 % 0 % 0 m²/s² 0 0 -0.59 80
21:00 120 J/kg -0.2 K 0 % 0 % 0 % 0 m²/s² 0 0 0.01 61
22:00 24 J/kg 1.3 K 0 % 0 % 0 % 0 m²/s² 0 0 1.9 80
23:00 0 J/kg 2.1 K 0 % 0 % 0 % 0 m²/s² 0 0 2.97 61
 05:46     21:29    Daglengte: 15:43 Morgen
00:00 0 J/kg 1.7 K 0 % 0 % 0 % 0 m²/s² 0 0 2.78 80
01:00 0 J/kg 1.9 K 0 % 0 % 0 % 0 m²/s² 0 0 2.83 80
02:00 0 J/kg 1.9 K 0 % 0 % 0 % 0 m²/s² 0 0 2.89 80
03:00 0 J/kg 2.3 K 0 % 0 % 0 % 0 m²/s² 0 0 3.23 61
04:00 0 J/kg 2.0 K 0 % 0 % 0 % 0 m²/s² 0 0 2.93 3
05:00 0 J/kg 2.1 K 0 % 0 % 0 % 0 m²/s² 0 0 2.88 3
06:00 0 J/kg 2.2 K 0 % 0 % 0 % 0 m²/s² 0 0 2.89 3
07:00 1 J/kg 1.7 K 0 % 0 % 0 % 0 m²/s² 0 0 2.21 3
08:00 3 J/kg 1.9 K 0 % 0 % 0 % 0 m²/s² 0 0 2.08 3
09:00 6 J/kg 2.0 K 0 % 0 % 0 % 0 m²/s² 0 0 2.12 3
10:00 24 J/kg 2.3 K 0 % 0 % 0 % 0 m²/s² 0 0 2.6 3
11:00 42 J/kg 2.1 K 0 % 0 % 0 % 0 m²/s² 0 0 2.52 3
12:00 40 J/kg 1.8 K 0 % 0 % 0 % 0 m²/s² 0 0 2.1 3
13:00 20 J/kg 1.9 K 0 % 0 % 0 % 0 m²/s² 0 0 2.02 3
14:00 61 J/kg 0.9 K 0 % 0 % 0 % 0 m²/s² 0 0 1.23 3
15:00 8 J/kg 1.6 K 0 % 0 % 0 % 0 m²/s² 0 0 2.29 3
16:00 15 J/kg 1.2 K 0 % 0 % 0 % 0 m²/s² 0 0 2.31 3
17:00 137 J/kg 0.3 K 0 % 0 % 0 % 0 m²/s² 0 0 1.47 3
18:00 179 J/kg 0.4 K 0 % 0 % 0 % 0 m²/s² 0 0 1.99 2
19:00 112 J/kg 1.4 K 0 % 0 % 0 % 0 m²/s² 0 0 3.11 2
20:00 49 J/kg 2.3 K 0 % 0 % 0 % 0 m²/s² 0 0 5.69 2
21:00 56 J/kg 2.5 K 0 % 0 % 0 % 0 m²/s² 0 0 7.09 1
22:00 57 J/kg 3.0 K 0 % 0 % 0 % 0 m²/s² 0 0 7.83 2
23:00 70 J/kg 2.9 K 0 % 0 % 0 % 0 m²/s² 0 0 7.04 2
 05:48     21:28    Daglengte: 15:40 Woensdag 28 Jul
00:00 69 J/kg 2.7 K 0 % 0 % 0 % 0 m²/s² 0 0 6.51 2
01:00 65 J/kg 2.3 K 0 % 0 % 0 % 0 m²/s² 0 0 5.93 3
02:00 25 J/kg 1.6 K 0 % 0 % 0 % 0 m²/s² 0 0 4.84 3
03:00 33 J/kg 0.5 K 0 % 0 % 0 % 0 m²/s² 0 0 3.02 3
04:00 67 J/kg 0.2 K 0 % 0 % 0 % 0 m²/s² 0 0 1.49 2
05:00 90 J/kg -0.6 K 0 % 0 % 0 % 0 m²/s² 0 0 1.71 2
06:00 153 J/kg -1.0 K 0 % 0 % 0 % 0 m²/s² 0 0 0.29 3
07:00 279 J/kg -1.4 K 0 % 0 % 0 % 0 m²/s² 0 0 0.07 3
08:00 418 J/kg -1.9 K 0 % 0 % 0 % 0 m²/s² 0 0 -0.64 2
09:00 424 J/kg -1.9 K 0 % 0 % 0 % 0 m²/s² 0 0 1.34 2
10:00 437 J/kg -2.0 K 0 % 0 % 0 % 0 m²/s² 0 0 -0.47 2
11:00 431 J/kg -1.9 K 0 % 0 % 0 % 0 m²/s² 0 0 0.14 2
12:00 334 J/kg -1.5 K 0 % 0 % 0 % 0 m²/s² 0 0 1.02 2
13:00 425 J/kg -1.8 K 0 % 0 % 0 % 0 m²/s² 0 0 0.57 2
14:00 394 J/kg -2.1 K 0 % 0 % 0 % 0 m²/s² 0 0 0.21 2
15:00 497 J/kg -2.6 K 0 % 0 % 0 % 0 m²/s² 0 0 -0.62 2
16:00 365 J/kg -2.0 K 0 % 0 % 0 % 0 m²/s² 0 0 0.01 2
17:00 270 J/kg -1.3 K 0 % 0 % 0 % 0 m²/s² 0 0 0.11 2
18:00 449 J/kg -2.2 K 0 % 0 % 0 % 0 m²/s² 0 0 -1.21 2
19:00 192 J/kg -0.9 K 0 % 0 % 0 % 0 m²/s² 0 0 0.09 1
20:00 332 J/kg -1.7 K 0 % 0 % 0 % 0 m²/s² 0 0 -0.89 1
21:00 0 J/kg 1.6 K 0 % 0 % 0 % 0 m²/s² 0 0 2.56 1
22:00 74 J/kg -0.4 K 0 % 0 % 0 % 0 m²/s² 0 0 0.89 1
23:00 110 J/kg -0.5 K 0 % 0 % 0 % 0 m²/s² 0 0 1.3 1
 05:49     21:26    Daglengte: 15:37 Donderdag 29 Jul
00:00 134 J/kg -0.1 K 0 % 0 % 0 % 0 m²/s² 0 0 1.88 1
01:00 79 J/kg 0.3 K 0 % 0 % 0 % 0 m²/s² 0 0 1.65 2
02:00 0 J/kg 1.4 K 0 % 0 % 0 % 0 m²/s² 0 0 3.86 2
03:00 2 J/kg 1.8 K 0 % 0 % 0 % 0 m²/s² 0 0 5.79 2
04:00 4 J/kg 2.5 K 0 % 0 % 0 % 0 m²/s² 0 0 7.15 2
05:00 0 J/kg 3.4 K 0 % 0 % 0 % 0 m²/s² 0 0 6.58 2
06:00 0 J/kg 4.2 K 0 % 0 % 0 % 0 m²/s² 0 0 6.27 2
07:00 0 J/kg 5.1 K 0 % 0 % 0 % 0 m²/s² 0 0 7.17 3
08:00 14 J/kg 5.1 K 0 % 0 % 0 % 0 m²/s² 0 0 6.93 2
09:00 26 J/kg 5.1 K 0 % 0 % 0 % 0 m²/s² 0 0 6.6 2
10:00 72 J/kg 3.9 K 0 % 0 % 0 % 0 m²/s² 0 0 5.46 2
11:00 76 J/kg 3.8 K 0 % 0 % 0 % 0 m²/s² 0 0 5.42 2
12:00 71 J/kg 3.5 K 0 % 0 % 0 % 0 m²/s² 0 0 5.12 2
13:00 55 J/kg 3.1 K 0 % 0 % 0 % 0 m²/s² 0 0 4.6 2
Temp Baro Wind Neerslag
  EWN Forecast EWN WRFDA DWD ICON FMI HIRLAM MET Norway GFS
 05:45     21:31    Daglengte: 15:46 Vandaag
16:00 21.1° 1009.5 hPa 3.6 m/s 0.0 mm 21.8° 1008.7 hPa 2.3 m/s 0.0 mm 21.0° 1010.2 hPa 3.7 m/s -1.9 mm 20.7° 1009.3 hPa 3.1 m/s 0.0 mm 19.8° 1009.6 hPa 2.9 m/s
19:00 18.4° 1009.0 hPa 3.1 m/s 0.0 mm 16.2° 1008.8 hPa 5.4 m/s 27.2 mm 17.6° 1009.2 hPa 1.9 m/s 1.6 mm 18.5° 1008.8 hPa 4.3 m/s 0.0 mm 16.7° 1008.6 hPa 2.3 m/s
22:00 16.6° 1009.5 hPa 2.4 m/s 6.2 mm 15.5° 1009.0 hPa 2.3 m/s 79.2 mm 16.1° 1009.7 hPa 2.3 m/s 3.0 mm 16.6° 1009.6 hPa 4.8 m/s 0.0 mm 15.1° 1009.4 hPa 2.5 m/s
 05:46     21:29    Daglengte: 15:43 Morgen
01:00 15.7° 1009.6 hPa 3.3 m/s 6.2 mm 14.6° 1008.7 hPa 5.6 m/s 81.0 mm 15.5° 1009.7 hPa 2.8 m/s 1.5 mm 15.7° 1009.7 hPa 5.2 m/s 0.0 mm 14.4° 1009.5 hPa 3.0 m/s
04:00 14.9° 1008.9 hPa 3.9 m/s 5.7 mm 13.8° 1007.9 hPa 6.0 m/s 81.3 mm 14.7° 1009.0 hPa 3.4 m/s 0.4 mm 14.9° 1009.3 hPa 6.0 m/s 0.0 mm 13.8° 1008.5 hPa 3.7 m/s
07:00 14.4° 1009.1 hPa 3.6 m/s 0.0 mm 14.3° 1007.6 hPa 5.1 m/s 81.7 mm 13.8° 1009.4 hPa 3.3 m/s 0.0 mm 14.4° 1009.7 hPa 5.0 m/s 0.0 mm 13.8° 1008.3 hPa 3.9 m/s
10:00 15.7° 1009.1 hPa 4.5 m/s 0.0 mm 15.4° 1008.5 hPa 6.0 m/s 93.3 mm 15.8° 1009.0 hPa 4.5 m/s 0.0 mm 14.4° 1010.3 hPa 5.0 m/s 0.0 mm 14.3° 1008.1 hPa 3.1 m/s
13:00 17.1° 1009.0 hPa 4.8 m/s 0.0 mm 16.9° 1008.8 hPa 6.3 m/s 98.0 mm 17.3° 1008.8 hPa 4.7 m/s 0.0 mm 16.0° 1010.6 hPa 5.0 m/s 0.0 mm 14.7° 1008.4 hPa 3.9 m/s
16:00 18.1° 1008.8 hPa 5.3 m/s 7.5 mm 17.4° 1008.5 hPa 4.9 m/s 98.6 mm 18.6° 1008.0 hPa 5.4 m/s 0.2 mm 19.0° 1010.1 hPa 4.7 m/s 0.0 mm 14.2° 1009.0 hPa 4.4 m/s
19:00 17.8° 1008.6 hPa 5.3 m/s 0.0 mm 18.7° 1007.7 hPa 4.6 m/s 99.0 mm 18.0° 1007.7 hPa 6.2 m/s 0.0 mm 17.9° 1010.4 hPa 5.7 m/s 0.0 mm 17.0° 1008.3 hPa 3.7 m/s
22:00 14.8° 1009.6 hPa 4.3 m/s 0.0 mm 12.4° 1008.3 hPa 3.5 m/s 99.2 mm 14.8° 1008.8 hPa 3.6 m/s 0.0 mm 16.6° 1011.9 hPa 4.9 m/s 0.0 mm 12.3° 1009.2 hPa 2.5 m/s
 05:48     21:28    Daglengte: 15:40 Woensdag 28 Jul
01:00 13.3° 1009.0 hPa 3.1 m/s 0.0 mm 9.9° 1007.3 hPa 3.1 m/s 99.2 mm 13.4° 1008.1 hPa 3.1 m/s 0.0 mm 15.1° 1012.0 hPa 2.8 m/s 0.0 mm 10.8° 1008.3 hPa 2.2 m/s
04:00 13.0° 1007.6 hPa 3.3 m/s 0.0 mm 12.5° 1005.3 hPa 4.5 m/s 99.2 mm 12.7° 1007.3 hPa 3.2 m/s 0.0 mm 14.4° 1011.4 hPa 2.6 m/s 0.0 mm 10.9° 1006.4 hPa 2.2 m/s
07:00 12.8° 1007.1 hPa 3.7 m/s 0.0 mm 12.6° 1004.1 hPa 4.2 m/s 99.6 mm 12.6° 1006.8 hPa 3.7 m/s 0.0 mm 13.7° 1011.1 hPa 2.9 m/s 0.0 mm 10.8° 1005.2 hPa 2.8 m/s
10:00 14.9° 1005.4 hPa 6.0 m/s 11.3 mm 15.3° 1003.5 hPa 6.9 m/s 100.5 mm 14.9° 1007.2 hPa 5.7 m/s 0.0 mm 14.5° 1004.8 hPa 7.0 m/s
13:00 16.7° 1005.2 hPa 7.4 m/s 35.0 mm 16.9° 1003.7 hPa 8.3 m/s 100.6 mm 17.2° 1006.9 hPa 7.6 m/s 0.0 mm 15.3° 1005.1 hPa 8.2 m/s
16:00 15.7° 1005.4 hPa 8.0 m/s 35.3 mm 15.4° 1003.3 hPa 8.7 m/s 101.1 mm 17.4° 1007.7 hPa 8.1 m/s 0.0 mm 15.1° 1005.1 hPa 7.9 m/s
19:00 15.8° 1005.8 hPa 8.0 m/s 11.4 mm 15.6° 1003.3 hPa 8.5 m/s 102.1 mm 15.9° 1007.9 hPa 7.2 m/s 0.1 mm 13.4° 1006.1 hPa 8.1 m/s
22:00 13.2° 1007.4 hPa 6.1 m/s 0.0 mm 12.9° 1004.4 hPa 7.7 m/s 103.8 mm 13.0° 1008.9 hPa 4.3 m/s 0.0 mm 11.8° 1008.0 hPa 4.4 m/s
 05:49     21:26    Daglengte: 15:37 Donderdag 29 Jul
01:00 12.3° 1008.6 hPa 5.5 m/s 0.0 mm 12.5° 1006.6 hPa 5.9 m/s 104.3 mm 11.3° 1009.2 hPa 3.5 m/s 0.0 mm 10.3° 1009.0 hPa 3.8 m/s
04:00 11.0° 1008.7 hPa 4.6 m/s 0.0 mm 10.8° 1007.9 hPa 4.8 m/s 104.4 mm 10.7° 1008.8 hPa 3.5 m/s 0.0 mm 12.8° 1009.2 hPa 4.6 m/s
07:00 11.8° 1009.1 hPa 4.3 m/s 0.0 mm 12.4° 1009.0 hPa 5.2 m/s 104.4 mm 11.1° 1008.7 hPa 2.6 m/s 0.0 mm 11.2° 1009.7 hPa 3.6 m/s
10:00 15.8° 1008.9 hPa 5.0 m/s 0.0 mm 15.8° 1010.3 hPa 7.2 m/s 104.4 mm 15.7° 1008.6 hPa 4.4 m/s 0.0 mm 16.0° 1010.2 hPa 6.3 m/s
13:00 18.6° 1008.5 hPa 4.9 m/s 0.0 mm 18.3° 1011.0 hPa 6.8 m/s 104.5 mm 18.7° 1007.9 hPa 4.5 m/s 0.0 mm 18.1° 1010.3 hPa 6.0 m/s
16:00 19.1° 1009.9 hPa 5.0 m/s 18.5 mm 19.1° 1009.9 hPa 5.0 m/s 18.5 mm
19:00 17.6° 1009.5 hPa 2.3 m/s 18.5 mm 17.6° 1009.5 hPa 2.3 m/s 18.5 mm
22:00 12.3° 1009.7 hPa 1.7 m/s 18.5 mm 12.3° 1009.7 hPa 1.7 m/s 18.5 mm
 05:51     21:25    Daglengte: 15:34 Vrijdag 30 Jul
01:00 11.8° 1009.6 hPa 0.7 m/s 19.0 mm 11.8° 1009.6 hPa 0.7 m/s 19.0 mm
04:00 11.3° 1008.2 hPa 0.9 m/s 20.7 mm 11.3° 1008.2 hPa 0.9 m/s 20.7 mm
07:00 11.6° 1007.7 hPa 1.2 m/s 21.6 mm 11.6° 1007.7 hPa 1.2 m/s 21.6 mm
10:00 13.5° 1007.3 hPa 2.7 m/s 22.4 mm 13.5° 1007.3 hPa 2.7 m/s 22.4 mm
13:00 14.8° 1006.8 hPa 2.9 m/s 23.2 mm 14.8° 1006.8 hPa 2.9 m/s 23.2 mm
16:00 14.0° 1007.4 hPa 2.7 m/s 24.5 mm 14.0° 1007.4 hPa 2.7 m/s 24.5 mm
19:00 15.0° 1007.5 hPa 2.7 m/s 25.4 mm 15.0° 1007.5 hPa 2.7 m/s 25.4 mm
22:00 14.4° 1008.9 hPa 3.2 m/s 25.9 mm 14.4° 1008.9 hPa 3.2 m/s 25.9 mm
 05:52     21:23    Daglengte: 15:31 Zaterdag 31 Jul
01:00 12.5° 1009.9 hPa 3.1 m/s 25.9 mm 12.5° 1009.9 hPa 3.1 m/s 25.9 mm
04:00 11.0° 1010.2 hPa 2.8 m/s 25.9 mm 11.0° 1010.2 hPa 2.8 m/s 25.9 mm
07:00 12.1° 1010.7 hPa 2.5 m/s 25.9 mm 12.1° 1010.7 hPa 2.5 m/s 25.9 mm
10:00 14.8° 1011.3 hPa 5.8 m/s 26.0 mm 14.8° 1011.3 hPa 5.8 m/s 26.0 mm
13:00 18.7° 1011.6 hPa 6.4 m/s 26.0 mm 18.7° 1011.6 hPa 6.4 m/s 26.0 mm
16:00 18.8° 1012.0 hPa 7.4 m/s 26.0 mm 18.8° 1012.0 hPa 7.4 m/s 26.0 mm
19:00 17.1° 1012.4 hPa 5.2 m/s 26.1 mm 17.1° 1012.4 hPa 5.2 m/s 26.1 mm
22:00 12.2° 1013.6 hPa 3.2 m/s 26.2 mm 12.2° 1013.6 hPa 3.2 m/s 26.2 mm
 05:54     21:21    Daglengte: 15:27 Zondag 01 Aug
01:00 10.1° 1014.1 hPa 2.7 m/s 26.2 mm 10.1° 1014.1 hPa 2.7 m/s 26.2 mm
04:00 8.6° 1014.3 hPa 2.2 m/s 26.2 mm 8.6° 1014.3 hPa 2.2 m/s 26.2 mm
07:00 8.9° 1015.0 hPa 2.6 m/s 26.2 mm 8.9° 1015.0 hPa 2.6 m/s 26.2 mm
10:00 14.8° 1015.1 hPa 5.3 m/s 26.2 mm 14.8° 1015.1 hPa 5.3 m/s 26.2 mm
13:00 18.0° 1015.3 hPa 5.2 m/s 26.2 mm 18.0° 1015.3 hPa 5.2 m/s 26.2 mm
16:00 19.7° 1015.3 hPa 4.7 m/s 26.2 mm 19.7° 1015.3 hPa 4.7 m/s 26.2 mm
19:00 18.5° 1015.7 hPa 4.5 m/s 26.3 mm 18.5° 1015.7 hPa 4.5 m/s 26.3 mm
22:00 12.7° 1016.9 hPa 2.1 m/s 26.3 mm 12.7° 1016.9 hPa 2.1 m/s 26.3 mm
 05:56     21:19    Daglengte: 15:23 Maandag 02 Aug
01:00 11.0° 1017.3 hPa 1.5 m/s 26.3 mm 11.0° 1017.3 hPa 1.5 m/s 26.3 mm
04:00 10.0° 1017.2 hPa 1.0 m/s 26.3 mm 10.0° 1017.2 hPa 1.0 m/s 26.3 mm
07:00 10.8° 1017.3 hPa 0.9 m/s 26.3 mm 10.8° 1017.3 hPa 0.9 m/s 26.3 mm
10:00 16.6° 1017.2 hPa 1.3 m/s 26.3 mm 16.6° 1017.2 hPa 1.3 m/s 26.3 mm
13:00 20.3° 1016.2 hPa 2.4 m/s 26.4 mm 20.3° 1016.2 hPa 2.4 m/s 26.4 mm
19:00 18.1° 1014.0 hPa 4.9 m/s 27.0 mm 18.1° 1014.0 hPa 4.9 m/s 27.0 mm
 05:57     21:18    Daglengte: 15:21 Dinsdag 03 Aug
01:00 15.7° 1011.9 hPa 3.3 m/s 27.1 mm 15.7° 1011.9 hPa 3.3 m/s 27.1 mm
07:00 14.5° 1010.5 hPa 2.9 m/s 27.1 mm 14.5° 1010.5 hPa 2.8 m/s 27.1 mm
13:00 19.8° 1008.5 hPa 6.6 m/s 27.5 mm 19.8° 1008.5 hPa 6.6 m/s 27.5 mm
19:00 17.7° 1006.9 hPa 6.0 m/s 28.5 mm 17.7° 1006.9 hPa 6.0 m/s 28.5 mm
 05:59     21:16    Daglengte: 15:17 Woensdag 04 Aug
01:00 13.3° 1007.8 hPa 3.8 m/s 28.6 mm 13.3° 1007.8 hPa 3.8 m/s 28.6 mm
07:00 11.1° 1008.2 hPa 2.6 m/s 28.8 mm 11.1° 1008.2 hPa 2.6 m/s 28.8 mm
13:00 18.3° 1008.1 hPa 6.5 m/s 29.4 mm 18.3° 1008.1 hPa 6.5 m/s 29.4 mm
19:00 17.5° 1007.7 hPa 5.2 m/s 29.9 mm 17.5° 1007.7 hPa 5.2 m/s 29.9 mm
 06:00     21:14    Daglengte: 15:14 Donderdag 05 Aug
01:00 13.2° 1007.3 hPa 2.1 m/s 30.0 mm 13.2° 1007.3 hPa 2.1 m/s 30.0 mm
07:00 13.5° 1004.6 hPa 0.6 m/s 30.0 mm 13.5° 1004.6 hPa 0.6 m/s 30.0 mm
13:00 17.6° 1008.3 hPa 3.1 m/s 0.8 mm
19:00 16.8° 1008.3 hPa 3.8 m/s 1.4 mm
 06:02     21:12    Daglengte: 15:10 Vrijdag 06 Aug
01:00 11.9° 1009.2 hPa 2.3 m/s 0.5 mm
07:00 11.7° 1008.8 hPa 2.3 m/s 0.3 mm
13:00 17.7° 1009.8 hPa 4.1 m/s 0.6 mm
19:00 17.1° 1010.3 hPa 4.3 m/s 1.6 mm
 06:04     21:10    Daglengte: 15:06 Zaterdag 07 Aug
01:00 11.7° 1012.0 hPa 3.0 m/s 0.3 mm
07:00 11.0° 1011.9 hPa 2.4 m/s 0.1 mm
13:00 17.5° 1012.1 hPa 3.2 m/s 0.4 mm
19:00 16.9° 1011.3 hPa 3.5 m/s 1.4 mm
 06:05     21:08    Daglengte: 15:03 Zondag 08 Aug
01:00 12.3° 1011.9 hPa 2.3 m/s 0.4 mm
07:00 11.6° 1011.1 hPa 1.9 m/s 0.5 mm
13:00 17.4° 1011.6 hPa 3.1 m/s 0.7 mm
19:00 17.0° 1011.9 hPa 4.1 m/s 1.4 mm
 06:07     21:07    Daglengte: 15:00 Maandag 09 Aug
01:00 11.6° 1013.7 hPa 2.6 m/s 0.3 mm
07:00 11.0° 1014.0 hPa 2.1 m/s 0.1 mm
13:00 18.0° 1014.9 hPa 2.6 m/s 0.2 mm
19:00 16.8° 1014.4 hPa 2.7 m/s 1.8 mm
 06:08     21:05    Daglengte: 14:57 Dinsdag 10 Aug
01:00 12.5° 1015.2 hPa 1.8 m/s 0.7 mm
07:00 11.9° 1014.9 hPa 1.7 m/s 0.4 mm
13:00 17.9° 1015.0 hPa 2.5 m/s 0.5 mm
FMI Hirlam - 7.5 km EWN WRFDA - 12 km DWD ICON - 7 km GFS - 25 km Basiskaart






























































Updatetijd (Europe/Amsterdam) Resolutie Lengte Stap
FMI Hirlam 14:00, 20:00, 02:00, 08:00 7.5 km 49h 1h
EWN WRFDA 10:30, 16:30, 22:30, 04:30 12 km 73h 1h
DWD ICON 11:45, 17:45, 23:45, 05:45 7 km 75h 1h
GFS 14:15, 20:15, 02:15, 08:15 25 km 237h 3h
30+ mm
25-30 mm
20-25 mm
15-20 mm
10-15 mm
6-10 mm
4-6 mm
2-4 mm
1-2 mm
0.5-1 mm
0.2-0.5 mm
0.1-0.2 mm
30+ mm
25-30 mm
20-25 mm
15-20 mm
10-15 mm
6-10 mm
4-6 mm
2-4 mm
1-2 mm
0.5-1 mm
0.2-0.5 mm
0.1-0.2 mm
Sneeuwval
Natte sneeuw
Hagel
Vorst
30+ mm
25-30 mm
20-25 mm
15-20 mm